Location: Trois-Rivi�res
(46.3500°N, 72.5500°W)
Time: 06:46:32
(UTC-04:00)

ISS - Pass Details

Date: 08 October 2017
Orbit: 401 x 408 km, 51.6° (Epoch: 20 October)

Event Time Altitude Azimuth Distance (km) Brightness Sun altitude
Rises 19:49:07 0° 296° (WNW) 2,328 1.5 -16.8°
Reaches altitude 10° 19:51:15 10° 302° (WNW) 1,468 0.1 -17.2°
Maximum altitude 19:54:27 49° 18° (NNE) 536 -3.4 -17.7°
Enters shadow 19:54:52 45° 45° (NE) 564 -3.4 -17.8°
